COSMOS 2251 DEB, 40230

Orbit data source: Space-Track

COSMOS 2251 DEB, 40230 is space debris in LEO originally from a launch on Wed, 16 Jun 1993 UTC launched from the Plesetsk Missile And Space Complex (PKMTR). The debris from Iridium 33, an American commercial communications satellite, has been tracked extensively since its accidental collision with the defunct Russian satellite Cosmos 2251 in 2009. This event, occurring at high speed in low Earth orbit (LEO), generated thousands of pieces of space debris, significantly increasing the risk of further collisions. The Iridium 33 debris cloud has impacted space traffic management and orbital debris mitigation strategies, making it a subject of ongoing study in space situational awareness.

Loading next visibility...
Identifier
40230, 1993-036BVK
Orbit
LEO
Country
Flag of CISCIS
Related business
Manufacturer
Unknown
Mission
Spacecraft
Bus & Motor
Unknown
Mass
Unknown
Launch date (UTC)
1993-06-16 (32 years ago)
Launch vehicle
Unknown
Launch site
Plesetsk Missile And Space Complex (PKMTR)
Object type
Payload
Rocket body
Debris
Shape & HBR
Unknown shape, 0.1 m
Radar Cross Section
Small (<0.1 m²)

Expand to show TLE details & history
Last TLE update: 5 hours ago

TLE from 5 hours ago
0 COSMOS 2251 DEB
1 40230U 93036BVK 25300.31726444  .00003344  00000-0  88855-3 0  9992
2 40230  74.0451 313.8944 0017816  18.8607   0.3779 14.48911943582990
Epoch: 2025-10-27T07:36Z
TLE epoch observation values (Epoch: 2025-10-27T07:36:51.647Z)
Latitude
18.47259°
Longitude
169.20934°
Altitude
718.635 km
Speed
7.505 km/s
True Right ascension
21h 17m 22s
True Declination
18° 22' 08"
Sunlit
Object was in daylight at epoch
Visualization orbit readout
Latitude
Unknown
Longitude
Unknown
Altitude
Unknown
Speed
Unknown
Apparent Right ascension
Unknown
Apparent Declination
Unknown
Sunlit
N/A
Visualization observer readout
Local Sidereal Time
08:20:58
Azimuth
Unknown
Elevation
Unknown
Doppler factor
Unknown
Orbital elements
Apogee altitude
739.472 km
Perigee altitude
714.155 km
Semi-major axis
7,104.95 km
Eccentricity
0.00178
Inclination
74.0451°
RAAN
313.8944°
Arg. of periapsis
18.8607°
True anomaly
0.37925°
Mean anomaly
0.3779°
Eccentric anomaly
0.37857°
Mean motion
3.62411 °/min
Orbital period
99.33 mins
BSTAR
0.00088855
Loading maneuver chart data...
Computing Atmospheric mass density...

Documentation

Showing up to 5 results
|